Current Version              Previous Version:    01  02  03  04  05  06  07  08  09  10  11  12  13  14  15  16  17  18  19  20  21  22  23  24  25  26  27  28  29  30  
   31  32  33  34  35  36  37  38  39  40  41  42  43  44  45  46  47  48  49  50  51  52  53  54  55  56  57  58  59  60  

[Printable]
661
ASUS44 KLUB 281401
RWRTX
WEST TEXAS WEATHER ROUNDUP
NATIONAL WEATHER SERVICE LUBBOCK TX
900 AM CDT MON JUL 28 2014

NOTE: "FAIR" INDICATES FEW OR NO CLOUDS BELOW 12,000 FEET WITH NO
SIGNIFICANT WEATHER AND/OR OBSTRUCTIONS TO VISIBILITY.

TXZ004-006>008-010-012-014-016-OKZ002-281500-
TEXAS PANHANDLE/OKLAHOMA PANHANDLE

CITY           SKY/WX    TMP DP  RH WIND       PRES   REMARKS
AMARILLO       TSTM      63  61  93 NE15G22   30.38R
BORGER         LGT RAIN  63  61  93 E12G17    30.36R
CANADIAN       RAIN      65  64  93 CALM      30.36S
DALHART        CLOUDY    63  59  87 SE13      30.40R
DUMAS          DRIZZLE   61  60  95 E8        30.39R
GUYMON         RAIN      63  61  93 SE14      30.34F
HEREFORD       CLOUDY    67  63  88 NE10      30.38R
$$

TXZ026-029-035-045-048-281500-
SOUTHERN PANHANDLE/SOUTH PLAINS/ROLLING PLAINS

CITY           SKY/WX    TMP DP  RH WIND       PRES   REMARKS
CHILDRESS      CLOUDY    74  60  61 N20G28    30.31R
SEMINOLE       SUNNY     79  58  48 N7        30.28R
LUBBOCK        PTSUNNY   74  57  55 NE16G30   30.29R
$$

TXZ052-054-060>062-072-078-127-140-154-169-281500-
PERMIAN BASIN/CONCHO VALLEY/BIG COUNTRY/EDWARDS PLATEAU

CITY           SKY/WX    TMP DP  RH WIND       PRES   REMARKS
ABILENE        SUNNY     83  68  60 SW9       30.17R
BIG SPRING     SUNNY     82  63  53 S8        30.22R
BROWNWOOD      SUNNY     81  68  65 CALM      30.15R
JUNCTION       SUNNY     77  68  73 SE5       30.16R
MIDLAND        SUNNY     80  62  54 S3        30.21R
ODESSA         SUNNY     81  61  50 S6        30.22R
SAN ANGELO     SUNNY     81  68  64 S12       30.15R
WINK           MOSUNNY   82  61  48 SE8       30.19R
$$

TXZ055-058-074-075-080-082-281500-
FAR WEST/SOUTHWEST MOUNTAINS/TRANS PECOS

CITY           SKY/WX    TMP DP  RH WIND       PRES   REMARKS
ALPINE         CLOUDY    67  61  80 W17       30.34S THUNDER
DRYDEN           N/A     84  66  54 E12       30.15R
EL PASO        CLOUDY    75  62  64 N15       30.27R
FORT STOCKTON  SUNNY     78  62  57 S14       30.19R
GUADALUPE PASS LGT RAIN  66  59  78 NE20        N/A
MARFA          CLOUDY    70  57  64 NE7       30.33R
$$

TXZ014-016-019-021>030-083-281500
TEXAS TECH WEST TEXAS MESONET/TEXAS PANHANDLE/NORTHERN SOUTH PLAINS

CITY           SKY/WX    TMP DP  RH WIND       PRES   REMARKS
AMARILLO 9NNE    N/A     63  61  94 E9        30.38R
AMARILLO 7SSE    N/A     64  60  89 NE15      30.39R
AMHERST 1NE      N/A     68  57  68 N17       30.34R
BOOTLEG 11WNW    N/A     64  58  80 E10       30.41R
CANADIAN 6E      N/A     64  63  98 W9        30.35R
CAPROCK CYN SP   N/A     71  62  72 N9        30.31R
CHILDRESS 2NNE   N/A     71  62  71 N14       30.26R
CLARENDON 2WSW   N/A     64  61  90 N20       30.34F
CLAUDE 12SW      N/A     64  61  91 NE15      30.36R
DIMMITT 2NE      N/A     65  59  80 NE13      30.37R
FLOYDADA 2NNE    N/A     71  57  61 N17       30.30R
FRIONA 2NE       N/A     65  58  77 NE14      30.39R
GOODLETT 3W      N/A     68  63  82 NE10      30.22R
HART 3N          N/A     66  59  79 NE18      30.35R
HEREFORD 2NW     N/A     64  59  85 NE12      30.37R
MEMPHIS 1NE    RAIN      71  63  77 N16       30.32R
MULESHOE 2SSW    N/A     67  57  70 NE14      30.36R
OLTON 6S         N/A     68  57  68 N20       30.33R
PALO DURO SP     N/A     64  60  86 NE8       30.36S
PAMPA 2E       LGT RAIN  61  60  97 NE12      30.37F
PLAINVIEW 1S     N/A     69  60  74 N16       30.31S
SILVERTON 7ESE   N/A     67  62  83 N15       30.33R
TULIA 2ENE       N/A     67  60  79 NE17      30.34S
TURKEY 2WSW      N/A     75  57  53 NE12      30.29S
UMBARGER 3NNE    N/A     65  60  86 NE14      30.38R
$$

TXZ033>036-039>041-045>048-281500
TEXAS TECH WEST TEXAS MESONET/SOUTH PLAINS

CITY           SKY/WX    TMP DP  RH WIND       PRES   REMARKS
AIKEN 3WSW       N/A     70  60  71 NE16      30.32S
ANTON 6SSW       N/A     73  58  59 N18       30.31R
BROWNFIELD 2S    N/A     73  60  63 N15       30.28R
DENVR CTY 7WNW   N/A     77  57  49 N6        30.29S
GAIL 2ESE        N/A     83  59  43 CALM      30.21R
LAMESA 2SE       N/A     78  60  53 N3        30.25R
LEVELLAND 4S     N/A     73  57  57 N15       30.31R
LUBBOCK 3WNW     N/A     73  56  54 N16       30.30R
MORTON 1ENE      N/A     71  57  60 N16       30.34R
ODONNELL 1N      N/A     78  60  54 NE3       30.25R
PLAINS 3N        N/A     72  59  63 N14       30.31R
RALLS 1SE        N/A     72  58  60 N15       30.30R
REESE CENTER     N/A     72  57  58 NE17      30.31R
SEMINOLE 2NNE    N/A     78  58  49 NW6       30.26R
SLATON 2NE       N/A     72  59  62 N14       30.28R
SNYDER 3E        N/A     83  58  42 W2        30.20R
SUNDOWN 8SW      N/A     73  57  58 N20       30.31R
TAHOKA 3NNE      N/A     74  60  62 N10       30.26R
WOLFFORTH 6SSW   N/A     73  58  59 N17       30.30R
$$

TXZ031-032-036>038-042>044-281500-
TEXAS TECH WEST TEXAS MESONET/ROLLING PLAINS

CITY           SKY/WX    TMP DP  RH WIND       PRES   REMARKS
ASPERMONT 3NE    N/A     79  69  71 N6        30.17R
FLUVANNA 3WNW    N/A     80  63  56 N3        30.23R
GRAHAM 5SSW      N/A     78  62  57 NE3       30.24R
GUTHRIE 10WSW    N/A     77  67  71 N12       30.20R
HASKELL 1NW      N/A     81  64  55 E3        30.14R
JAYTON 1SSE      N/A     76  65  69 N14       30.19R
KNOX CITY 3NW    N/A     82  66  58 NE8       30.16R
LK A HENRY 1NW   N/A     80  63  55 N6        30.21R
NORTHFIELD 1S    N/A     74  59  60 N18       30.28R
ODELL 4ENE       N/A     75  63  64 NE14      30.22R
PADUCAH 10SW     N/A     76  65  69 N12       30.22R
POST 1NE         N/A     77  62  58 N6        30.23R
RRING SPRGS 3N   N/A     73  61  65 N15       30.27R
SEYMOUR 3NW      N/A     82  68  62 E12       30.15R
SPUR 1W          N/A     76  62  62 N14       30.22R
WEINERT 2NNE     N/A     81  66  60 E6        30.15R
WHITE RVR 6NE    N/A     75  62  63 N17       30.25R
$$

TXZ052-054-060>062-072-078-127-140-154-169-281500-
TEXAS TECH WEST TEXAS MESONET/PERMIAN BASIN/
CONCHO VALLEY/BIG COUNTRY/EDWARDS PLATEAU

CITY           SKY/WX    TMP DP  RH WIND       PRES   REMARKS
COYANOSA 2N      N/A     81  63  53 SE9       30.17R
JUNCTION 1SSW    N/A     78  69  74 S3        30.16R
MERTZON 3NNE     N/A     80  67  65 S8        30.17S
SAN ANGELO 7NW   N/A     82  66  58 SE2       30.17R
STRLNG CT 4WSW   N/A     80  66  62 S6        30.19R
ST LAWRNCE 5SW   N/A     78  64  63 SE9       30.19R
SWEETWATR 11SW   N/A     82  65  56 S6        30.21R
WALL 1E          N/A     81  66  61 SW8       30.16S
$$

TXZ055-058-074-075-080-082-281500-
TEXAS TECH WEST TEXAS MESONET/FAR WEST/SOUTHWEST MOUNTAINS/TRANS PECOS

CITY           SKY/WX    TMP DP  RH WIND       PRES   REMARKS
GUADLPE MTN NP   N/A     67  57  71 N2        30.39R
$$